Regional Weather Roundup
Issued by NWS

Home | Current Version | Previous Version | Graphics & Text | Print | Product List | Glossary On
Versions: 1 2 3 4 5 6 7 8 9 10 11 12 13 14 15 16 17 18 19 20 21 22 23 24 25 26 27 28 29 30 31 32 33 34 35 36 37 38 39 40 41 42 43 44 45 46 47 48 49 50
000
ASUS43 KDTX 041410
RWRMI
MICHIGAN HOURLY REGIONAL WEATHER ROUNDUP
NATIONAL WEATHER SERVICE DETROIT/PONTIAC MI
1000 AM EDT TUE AUG 04 2015

NOTE: "FAIR" INDICATES FEW OR NO CLOUDS BELOW 12,000 FEET WITH NO
SIGNIFICANT WEATHER AND/OR OBSTRUCTION TO VISIBILITY.

MIZ047>049-052>055-059>063-066>070-074>076-081>083-041500-
SOUTHEAST LOWER MICHIGAN

CITY           SKY/WX    TMP DP  RH WIND       PRES   REMARKS
ADRIAN         MOSUNNY   69  59  70 VRB6      29.96R
ALMA           SUNNY     71  60  67 W9        29.92R
ANN ARBOR      SUNNY     71  58  63 W6        29.93S
BAD AXE        PTSUNNY   67  60  77 SW5       29.90S
CARO           SUNNY     69  60  71 SW7       29.90S
DETROIT CITY   SUNNY     72  54  53 VRB3      29.92S
DETROIT        MOSUNNY   71  56  58 SW5       29.94R
FLINT          SUNNY     71  59  65 SW7       29.92R
GROSSE ILE     SUNNY     72  57  60 W5        29.93R
HILLSDALE      SUNNY     71  60  67 W5        29.96S
HOWELL         SUNNY     71  58  65 W7        29.93S

CITY           SKY/WX    TMP DP  RH WIND       PRES   REMARKS
JACKSON        SUNNY     70  59  68 W8        29.95R
LAMBERTVILLE   SUNNY     72  57  59 W5        29.95S
LANSING        SUNNY     71  58  63 W10       29.93S
LAPEER         FAIR      69  56  63 W5        29.91S
MASON          SUNNY     68  58  69 W5        29.94S
MONROE         SUNNY     70  58  66 SW6       29.93S
MT. CLEMENS    MOSUNNY   75  57  53 SW5       29.90R
PONTIAC        MOSUNNY   70  57  63 W12       29.92R
PORT HURON     SUNNY     70  59  68 SW5       29.91S
TRI CITIES     SUNNY     71  60  68 W8        29.91R
MIDLAND        FAIR      71  56  59 W9G16     29.90R
TROY           SUNNY     72  55  55 SW6       29.93S
SAGINAW HB     SUNNY     70  61  73 SW7       29.90R
$$
MIZ043>046-050>051-056>058-064>065-071>073-077>080-041500-
SOUTHWEST LOWER MICHIGAN

CITY           SKY/WX    TMP DP  RH WIND       PRES   REMARKS
BATTLE CREEK     N/A    N/A N/A N/A MISG      29.96R
BENTON HARBOR  SUNNY     73  59  61 W8        29.96R
BIG RAPIDS     CLOUDY    68  58  70 W12       29.92R
COLDWATER      SUNNY     68  59  73 SW5       29.96S
FREMONT        CLOUDY    66  62  89 CALM      29.93R
HOLLAND        SUNNY     73  60  63 W8        29.96R
GRAND RAPIDS   MOSUNNY   73  57  57 NW10      29.94R
IONIA          FAIR      72  59  64 W8        29.93R
KALAMAZOO      SUNNY     73  57  57 W8        29.96R
LUDINGTON      MOSUNNY   71  60  68 W6        29.92S
MARSHALL       SUNNY     71  60  66 W6        29.95R
MOUNT PLEASANT SUNNY     73  57  58 W8        29.90S
MUSKEGON       MOSUNNY   74  58  57 W8        29.94R
SOUTH HAVEN    SUNNY     74  58  57 W7        29.96R
$$
MIZ016>042-041500-
NORTHERN LOWER MICHIGAN

CITY           SKY/WX    TMP DP  RH WIND       PRES   REMARKS
ALPENA         PTSUNNY   63  58  83 SW7       29.86S
BEAVER ISLAND  CLOUDY    62  54  77 NW7       29.89R
BELLAIRE       CLOUDY    67  58  73 W6        29.88R
CADILLAC       CLOUDY    65  59  83 W9        29.91R
CHARLEVOIX     CLOUDY    64  58  81 NW8       29.92R
FRANKFORT      PTSUNNY   67  59  74 NW8       29.90S
GAYLORD        CLOUDY    63  60  90 NW5       29.88R
GRAYLING       PTSUNNY   65  58  76 W10G18    29.89S
HARBOR SPRINGS CLOUDY    63  57  79 NW8       29.88R
HOUGHTON LAKE  CLOUDY    64  57  78 W10       29.90R
MANISTEE       PTSUNNY   64  55  72 W10       29.93R
OSCODA         CLOUDY    64  58  80 SW5       29.87S
PELLSTON       CLOUDY    63  57  81 NW12      29.88R
ROGERS CITY    PTSUNNY   67  58  73 W6        29.86S
TRAVERSE CITY  PTSUNNY   67  58  72 NW8       29.88R
$$
MIZ007>008-015-041500-
EASTERN UPPER MICHIGAN

CITY           SKY/WX    TMP DP  RH WIND       PRES   REMARKS
KINROSS        CLOUDY    59  55  88 NW9       29.86R
MACKINAC ISLAN CLOUDY    61  60  94 W7        29.86R
NEWBERRY       CLOUDY    59  52  77 NW10G16   29.87S
S. S. MARIE    CLOUDY    60  54  80 NW8       29.85R
MUNISING         N/A     63  53  70 NW10      29.89R
$$
MIZ004>006-011>014-085-041500-
CENTRAL UPPER MICHIGAN

CITY           SKY/WX    TMP DP  RH WIND       PRES   REMARKS
MANISTIQUE     CLOUDY    59  54  82 NW5       29.88S
ESCANABA       PTSUNNY   64  55  72 NW6       29.89S
MENOMINEE      CLOUDY    63  54  72 N6        29.91R
SAWYER-GWINN   CLOUDY    61  54  77 NW6       29.89S
$$
MIZ001>003-009>011-084-041500-
WESTERN UPPER MICHIGAN

CITY           SKY/WX    TMP DP  RH WIND       PRES   REMARKS
IRON MOUNTAIN  CLOUDY    61  56  83 W6        29.90R
HOUGHTON       CLOUDY    61  52  72 VRB5      29.90R
COPPER HARBOR    N/A     59  51  75 NE6       29.89R
IRONWOOD       MOSUNNY   61  55  82 NW9       29.92R
$$

ABBREVIATIONS USED IN REMARKS
   TC - TEMPERATURE IN CELSIUS
  WCI - WIND CHILL INDEX
   HX - HEAT INDEX
  VSB - VISIBILITY



USA.gov is the U.S. government's official web portal to all federal, state and local government web resources and services.